Regional Weather Roundup
Issued by NWS Goodland, KS

Home | Current Version | Previous Version | Graphics & Text | Print | Product List | Glossary On
Versions: 1 2 3 4 5 6 7 8 9 10 11 12 13 14 15 16 17 18 19 20 21 22 23 24 25 26 27 28 29 30 31 32 33 34 35 36 37 38 39 40 41 42 43 44 45 46 47 48 49 50
000
ASUS43 KGLD 132008
RWRGLD

GOODLAND FORECAST AREA HOURLY WEATHER ROUNDUP
NATIONAL WEATHER SERVICE GOODLAND KS
100 PM MST SAT FEB 13 2016

...OFFICIAL OBSERVATIONS...

CITY           SKY/WX    TMP DP  RH WIND       PRES   REMARKS
GOODLAND KS    CLOUDY    28  28 100 S14       30.05F FOG     WCI  17
HILL CITY KS   CLOUDY    32  20  61 S12       30.18F
IMPERIAL NEB   CLOUDY    28  26  92 S14       30.06F WCI  17
MCCOOK NEB     CLOUDY    26  21  81 S16       30.14F HAZE    WCI  14
AKRON CO       CLOUDY    34  33  96 SW10      29.96F
BURLINGTON CO  CLOUDY    31  29  92 S12       30.01F
LIMON CO       CLOUDY    40  34  79 CALM      29.98F
$$

...UNOFFICIAL OBSERVATIONS...

CITY           SKY/WX    TMP DP  RH WIND       PRES   REMARKS
COLBY KS       CLOUDY    28  28 100 S16       30.09F FOG     WCI  17
GOVE KS          N/A     31  32 100 MISG        N/A
LENORA KS        N/A     28  32 100 MISG        N/A
NORTON KS      CLOUDY    28  16  59 SE15      30.16F WCI  17
SHARON SPRINGS   N/A     31  30  96 S10         N/A
TRIBUNE KS     CLOUDY    43  32  65 S8        30.05
KIT CARSON CO    N/A     30  28  92 MISG        N/A
YUMA CO          N/A     39  35  85 CALM        N/A
$$



USA.gov is the U.S. government's official web portal to all federal, state and local government web resources and services.